Weather History for Knoxville, TN

Change the Weather History Date:

Sunday, March 4, 2012

  Actual Average Record
Temperature  
Mean Temperature 41 °F 47 °F  
Max Temperature 47 °F 58 °F 82 °F (1976)
Min Temperature 34 °F 36 °F 5 °F (1873)
Degree Days  
Heating Degree Days 24 18  
Month to date heating degree days 52 74  
Since 1 July heating degree days 2519 2970  
Cooling Degree Days 0 0  
Month to date cooling degree days 0 0  
Year to date cooling degree days 0 0  
Moisture  
Dew Point 23 °F    
Average Humidity 54    
Maximum Humidity 70    
Minimum Humidity 37    
Precipitation  
Precipitation T in 0.14 in 1.51 in (1917)
Month to date precipitation 1.63 0.57  
Year to date precipitation 11.37 9.15  
Snow  
Snow T in 0.00 in - ()
Month to date snowfall T 0.1  
Since 1 July snowfall 0.1 5.2  
Snow Depth 0.00 in    
Sea Level Pressure  
Sea Level Pressure 29.93 in    
Wind  
Wind Speed 10 mph (West)    
Max Wind Speed 25 mph    
Max Gust Speed 33 mph    
Visibility 10 miles    
Events      
T = Trace of Precipitation, MM = Missing Value Source: NWS Daily Summary

Daily Weather History Graph

Daily Weather History Graph

Search for Another Location

Airport:

Trip Planner

Search our weather history database for the weather conditions in past years. The results will help you decide how hot, cold, wet, or windy it might be!

Date:

Astronomy

Mar. 04, 2012 Rise Set
Actual Time 7:01 AM EST 6:34 PM EST
Civil Twilight 6:35 AM EST 6:59 PM EST
Nautical Twilight 6:06 AM EST 7:29 PM EST
Astronomical Twilight 5:36 AM EST 7:59 PM EST
Moon 2:51 PM EST (3/4) 4:14 AM EST (3/4)
Length of Visible Light 12h 24m
Length of Day
11h 32m
Waxing Gibbous, 83% of the Moon is Illuminated
Mar 4
Waxing Gibbous
Mar 8
Full
Mar 14
Last Quarter
Mar 22
New
Mar 30
First Quarter

Hourly Weather History & Observations

Time (EST) Temp. Windchill Dew Point Humidity Pressure Visibility Wind Dir Wind Speed Gust Speed Precip Events Conditions
12:53 AM 44.1 °F 39.5 °F 25.0 °F 47% 29.84 in 10.0 mi West 8.1 mph - N/A   Partly Cloudy
1:53 AM 44.1 °F 40.1 °F 24.1 °F 45% 29.84 in 10.0 mi NNW 6.9 mph - N/A   Overcast
2:53 AM 43.0 °F 38.8 °F 25.0 °F 49% 29.83 in 10.0 mi North 6.9 mph - N/A   Overcast
3:53 AM 41.0 °F 39.0 °F 23.0 °F 49% 29.84 in 10.0 mi NNW 3.5 mph - N/A   Overcast
4:53 AM 39.0 °F 36.8 °F 23.0 °F 53% 29.86 in 10.0 mi NW 3.5 mph - N/A   Partly Cloudy
5:53 AM 37.9 °F - 23.0 °F 55% 29.89 in 10.0 mi Calm Calm - N/A   Partly Cloudy
6:53 AM 34.0 °F 28.8 °F 24.1 °F 67% 29.90 in 10.0 mi SW 5.8 mph - N/A   Partly Cloudy
7:53 AM 36.0 °F 30.3 °F 26.1 °F 67% 29.92 in 10.0 mi West 6.9 mph - N/A   Partly Cloudy
8:53 AM 39.0 °F 32.8 °F 26.1 °F 60% 29.95 in 10.0 mi West 9.2 mph - N/A   Scattered Clouds
9:53 AM 41.0 °F 34.3 °F 24.1 °F 51% 29.98 in 10.0 mi WNW 11.5 mph - N/A   Scattered Clouds
10:53 AM 42.1 °F 34.9 °F 21.0 °F 43% 29.97 in 10.0 mi West 13.8 mph 20.7 mph N/A   Scattered Clouds
11:53 AM 42.1 °F 33.9 °F 19.9 °F 41% 29.97 in 10.0 mi West 17.3 mph 23.0 mph N/A   Overcast
12:53 PM 44.1 °F 36.2 °F 19.0 °F 37% 29.96 in 9.0 mi West 18.4 mph 24.2 mph 0.00 in   Unknown
1:53 PM 45.0 °F 36.4 °F 18.0 °F 34% 29.95 in 10.0 mi West 23.0 mph 33.4 mph 0.00 in   Mostly Cloudy
2:53 PM 46.0 °F 38.5 °F 21.9 °F 39% 29.94 in 10.0 mi West 19.6 mph 27.6 mph N/A   Mostly Cloudy
3:53 PM 45.0 °F 37.9 °F 21.9 °F 40% 29.95 in 10.0 mi West 16.1 mph - N/A   Mostly Cloudy
4:53 PM 45.0 °F 38.9 °F 21.9 °F 40% 29.96 in 10.0 mi West 12.7 mph 21.9 mph N/A   Mostly Cloudy
5:53 PM 45.0 °F 39.3 °F 21.9 °F 40% 29.96 in 10.0 mi WSW 11.5 mph - N/A   Mostly Cloudy
6:53 PM 42.1 °F 37.1 °F 24.1 °F 49% 29.96 in 10.0 mi SW 8.1 mph - N/A   Scattered Clouds
7:53 PM 39.9 °F 34.5 °F 25.0 °F 55% 29.98 in 10.0 mi SW 8.1 mph - N/A   Scattered Clouds
8:53 PM 39.9 °F 34.5 °F 25.0 °F 55% 29.99 in 10.0 mi SW 8.1 mph - N/A   Partly Cloudy
9:53 PM 41.0 °F 36.4 °F 27.0 °F 57% 29.99 in 10.0 mi SSW 6.9 mph - N/A   Overcast
10:53 PM 42.1 °F 36.6 °F 26.1 °F 53% 29.97 in 10.0 mi SW 9.2 mph - N/A   Overcast
11:53 PM 42.1 °F 36.6 °F 26.1 °F 53% 29.95 in 10.0 mi SSW 9.2 mph - N/A   Mostly Cloudy